Presure
189 176 152 218 193 194 294 373 375 326 301 143 204 306 303 353 334 335 340 337 348 363 426 350 168 102 208 214 209 138 138 88 126 82 143 114 97 178 144 147 129 97 93 96 104
172 202 206 216 237 226 388 355 338 332 316 314 313 304 348 337 321 329 328 340 289 307 326 411 179 205 89 168 178 207 142 115 108 144 101 150 81 72 118 98 81 177 161 172 107
163 191 227 226 216 225 380 353 336 318 297 320 333 351 337 324 326 327 325 328 218 339 160 241 276 172 187 200 187 180 146 176 155 93 96 104 187 77 158 152 162 111 111 177 114
145 187 175 215 216 233 372 358 350 333 331 328 348 345 326 326 337 328 319 327 339 333 346 162 272 235 152 123 139 195 113 141 103 145 103 148 104 113 191 155 92 145 156 155 174
175 200 222 207 210 235 368 357 333 333 345 336 357 333 322 321 334 308 298 311 297 323 337 224 266 199 222 206 202 183 186 137 94 123 148 125 101 129 105 160 155 147 144 153 161
142 192 154 198 204 232 343 366 336 375 346 343 360 332 316 311 307 287 280 286 302 317 332 333 184 234 177 210 185 195 160 180 154 89 84 130 94 147 92 102 94 158 134 141 148
142 198 193 194 197 217 251 370 345 370 356 346 359 328 317 304 297 281 281 157 294 329 321 153 159 256 218 181 190 83 93 75 128 189 90 166 88 94 141 82 96 88 155 125 132
184 142 183 175 192 213 238 368 361 351 336 352 359 383 320 309 299 293 280 285 277 293 328 310 259 256 217 209 207 195 198 72 87 82 100 84 138 81 92 93 82 79 97 102 131
217 142 215 171 197 225 184 321 368 346 352 345 365 356 322 310 293 296 290 288 257 294 310 352 143 244 235 212 101 186 193 193 167 77 82 99 109 139 84 90 136 97 90 91 92
211 194 141 208 224 218 220 241 377 370 365 364 394 383 332 311 304 309 295 304 292 288 203 342 283 206 252 193 210 199 195 153 189 182 181 85 193 86 99 88 137 66 117 143 94
216 199 207 198 203 198 219 236 251 344 337 390 348 281 315 318 320 318 292 293 299 310 152 352 148 258 253 239 229 202 195 189 144 186 193 183 70 70 70 75 73 137 71 111 139
168 183 132 233 226 237 222 221 230 294 339 328 338 317 327 321 306 311 306 282 314 242 199 363 146 259 249 246 232 203 200 202 194 174 182 181 192 189 125 164 82 182 152 139 81
189 171 191 209 223 219 204 231 221 237 347 341 333 340 241 129 294 291 315 310 231 316 150 359 142 142 142 246 231 198 207 202 196 185 186 188 192 191 182 177 180 181 190 83 81
183 189 171 136 166 217 207 209 218 224 249 365 360 330 322 329 319 144 97 277 189 309 281 144 137 169 240 140 241 208 208 201 194 189 189 197 197 212 180 181 181 176 201 184 198
164 185 210 198 164 201 234 232 202 223 224 253 350 343 356 345 180 303 299 332 310 328 169 156 156 186 246 197 139 223 225 202 194 214 209 193 210 177 212 201 185 192 202 196 197
191 179 184 188 183 177 218 235 208 213 218 230 245 275 332 249 101 238 244 324 196 325 354 316 334 290 137 141 199 232 226 219 205 214 214 211 191 205 207 188 180 182 181 177 177
207 212 208 178 215 207 141 224 231 197 193 221 162 216 140 130 134 164 199 308 301 253 311 312 316 289 273 164 239 227 212 208 225 201 198 204 199 200 190 182 169 164 164 169 162
194 163 210 132 219 218 181 185 223 204 196 227 217 228 231 221 300 283 191 141 290 293 145 160 289 275 268 253 183 215 227 231 216 203 204 197 200 209 175 172 180 196 191 185 188
188 167 218 212 101 171 177 181 222 146 215 194 203 183 147 145 171 297 134 122 218 129 155 289 193 139 158 245 135 210 233 227 226 225 200 200 195 214 206 204 194 191 180 177 180
196 220 186 208 215 102 178 157 187 225 227 230 208 185 207 211 149 156 237 165 150 230 120 272 183 225 148 166 229 133 133 232 231 228 189 191 200 184 179 183 186 185 188 189 184
192 198 164 168 197 204 166 205 180 216 228 147 235 203 215 200 206 218 221 216 160 135 150 157 191 134 189 266 234 252 195 222 219 174 211 172 184 182 170 189 189 191 183 190 194
164 181 199 213 234 174 189 233 173 163 210 229 218 195 185 218 196 197 203 213 220 139 224 165 193 262 147 188 149 133 143 145 182 193 184 181 175 171 150 192 191 185 180 140 146
186 156 185 199 204 210 214 178 164 197 135 161 217 220 177 211 196 207 224 167 193 206 204 204 224 160 171 149 147 225 176 147 150 195 203 192 186 197 196 196 178 175 209 188 218
177 161 200 196 207 200 189 194 185 164 164 177 163 217 213 233 191 214 165 184 187 191 179 169 179 178 179 175 226 292 249 172 188 188 189 200 175 202 171 146 180 249 253 249 242
193 198 165 184 176 194 203 214 180 180 163 154 209 154 180 220 189 189 225 216 163 191 177 179 225 194 209 205 204 206 216 211 219 221 215 197 217 221 214 209 208 207 206 205 203
178 186 211 135 175 190 224 188 171 180 215 218 201 199 221 227 163 185 172 218 195 212 154 188 162 163 185 186 192 193 192 196 199 200 203 207 206 206 201 200 198 198 199 200 199
173 187 172 172 189 154 181 208 193 205 202 199 150 148 155 158 151 192 160 150 201 186 202 181 194 192 197 166 140 185 154 140 183 189 195 195 187 186 185 186 189 186 182 180 191
Wind_Speed
53 50 40 67 66 64 78 40 31 25 29 31 37 39 37 22 23 25 29 44 38 42 81 113 70 36 93 90 85 68 65 29 53 20 57 41 32 64 53 51 42 32 28 29 30
44 51 67 68 71 74 43 37 31 25 28 32 33 32 13 13 18 23 26 32 43 51 84 79 70 101 31 65 69 78 70 56 41 69 29 60 20 14 35 23 21 60 51 53 28
35 60 63 67 67 76 43 38 31 30 29 29 24 7 8 12 14 13 12 17 42 39 61 57 123 64 71 81 73 74 74 74 51 27 32 30 60 17 61 54 57 33 31 56 33
34 61 49 64 69 81 46 37 32 30 30 23 15 4 3 6 12 16 18 20 30 26 61 49 121 111 62 38 50 77 34 75 33 72 35 63 28 34 63 56 24 49 52 54 54
43 53 71 65 70 83 48 36 33 35 29 19 10 8 14 15 27 38 29 24 51 44 60 72 117 73 107 89 84 71 75 53 28 50 69 50 29 48 32 53 47 51 49 53 54
37 58 46 63 69 85 65 39 39 29 17 17 13 14 23 41 53 46 39 36 30 47 49 86 70 104 58 95 72 78 65 80 61 29 23 53 31 56 30 35 28 59 45 47 48
40 58 60 63 67 81 97 40 37 21 24 20 17 16 31 44 57 45 46 33 35 33 55 46 50 109 98 68 79 29 35 22 48 74 33 63 31 33 52 21 27 26 58 44 44
53 41 56 54 64 75 92 48 35 31 29 23 16 20 34 40 47 52 49 51 51 38 44 55 106 107 96 96 96 84 86 14 38 30 38 30 57 24 34 36 22 19 36 39 49
63 40 64 50 63 77 60 72 36 33 26 23 17 21 30 40 34 44 42 41 40 46 46 40 45 99 103 99 28 77 80 77 59 20 24 36 46 57 27 34 51 40 34 36 36
60 53 41 64 72 72 77 93 41 38 30 23 25 23 25 29 32 41 41 42 45 52 44 43 108 72 104 84 97 89 83 55 72 61 58 32 63 34 40 29 53 4 47 54 43
59 53 60 59 61 60 72 88 99 50 50 33 33 34 22 22 25 34 33 34 36 26 39 37 39 104 99 97 94 91 83 76 48 64 68 62 19 17 15 24 20 55 14 36 56
43 47 35 69 71 78 74 78 88 84 47 46 33 30 17 16 23 33 32 24 25 27 36 33 36 102 97 95 96 90 87 88 80 61 56 55 61 58 46 54 33 46 56 58 30
41 43 49 64 69 68 61 79 78 89 48 38 37 27 18 22 27 29 23 17 14 27 26 35 30 29 27 93 94 80 93 86 80 62 59 56 58 57 53 48 46 46 49 36 33
28 45 43 31 44 67 59 61 71 78 86 40 39 37 33 20 20 5 11 13 25 27 34 25 23 39 86 22 88 86 90 83 74 64 57 64 58 66 49 48 46 45 51 44 48
35 38 48 47 38 51 70 71 52 72 69 88 48 43 39 29 7 24 21 19 23 18 33 26 24 41 90 61 23 84 86 85 73 77 77 59 65 46 59 58 48 49 52 48 46
29 40 34 32 38 45 62 67 53 61 63 74 86 88 46 24 9 20 19 25 16 28 31 48 55 89 24 23 62 81 79 80 78 74 68 70 47 59 52 48 39 38 39 40 42
51 51 49 31 60 52 27 60 63 42 42 64 15 63 9 7 9 1 17 28 31 19 37 43 60 83 88 40 86 77 68 71 75 68 54 63 52 48 43 40 42 48 48 48 56
38 34 53 22 63 57 32 33 56 43 36 62 60 70 73 59 55 34 20 7 24 28 7 18 73 77 82 87 56 66 74 74 66 64 62 54 50 53 40 41 41 44 44 49 51
35 34 53 50 5 31 32 30 48 20 46 31 41 25 3 6 17 44 13 19 9 14 10 32 35 25 29 73 26 63 75 69 67 64 43 46 38 54 46 43 43 48 53 56 55
50 52 30 55 46 3 25 19 30 42 47 50 37 21 41 43 9 7 63 15 16 12 16 30 29 43 22 35 54 28 29 67 65 62 28 30 39 31 39 48 54 56 55 54 56
48 51 24 38 41 39 29 38 21 38 42 14 50 30 41 31 35 45 44 39 12 20 14 14 26 23 27 56 46 75 50 51 61 36 55 44 49 54 53 58 57 54 56 55 56
23 33 51 52 34 28 27 38 22 28 35 42 35 19 11 39 21 23 29 33 36 18 39 19 6 11 24 36 29 34 36 38 37 40 42 46 50 58 42 54 53 56 60 58 61
42 36 34 54 53 49 33 10 27 32 14 13 33 33 7 27 16 23 33 12 13 23 16 16 26 18 25 30 31 42 35 39 41 35 44 36 51 56 57 58 58 56 66 65 69
34 27 53 28 47 35 34 25 27 27 24 7 12 32 23 36 9 26 5 3 5 6 9 17 11 11 14 20 18 24 33 40 43 46 49 57 56 65 50 50 61 58 55 42 43
63 61 43 44 28 51 49 44 20 22 29 31 24 18 23 28 15 5 24 11 13 4 12 12 19 10 3 4 8 12 15 22 24 27 34 37 39 37 37 40 45 46 48 51 55
54 49 42 33 32 55 31 39 19 18 37 38 27 29 35 37 19 5 19 17 15 5 24 17 22 27 21 24 24 26 29 30 33 37 40 37 44 43 48 49 52 55 56 57 60
52 60 56 43 50 42 35 46 36 38 39 36 37 33 34 35 35 25 20 22 22 19 7 23 22 18 27 35 36 36 40 41 46 46 46 49 56 58 57 58 60 62 64 64 68
Wind_Direction
321 321 317 322 328 322 336 336 334 307 302 278 288 290 291 250 236 217 204 205 208 193 201 204 214 220 219 218 219 218 217 201 218 193 221 211 205 224 226 228 221 205 224 230 232
335 328 320 322 338 337 347 343 340 323 312 303 298 298 270 230 217 210 216 209 208 189 200 199 211 213 223 214 214 216 217 223 217 224 192 223 202 210 219 213 228 234 237 239 233
336 322 344 343 338 345 351 345 337 331 328 320 312 294 254 245 209 195 187 191 207 188 215 207 205 206 208 210 208 207 216 215 208 203 193 213 226 202 227 230 228 231 235 238 236
331 330 335 344 348 352 358 353 351 345 342 337 344 168 175 197 178 144 122 155 136 185 190 208 201 201 204 205 206 211 193 221 196 225 206 223 215 223 230 230 222 240 235 239 240
339 339 355 345 352 358 2 3 360 354 348 352 26 145 137 137 129 117 113 123 170 192 190 199 199 203 202 207 209 204 208 202 200 218 222 221 207 223 224 234 230 238 243 242 242
344 342 345 349 356 2 5 2 5 0 31 24 52 137 134 133 133 139 152 153 175 183 197 201 200 196 203 203 205 209 209 211 214 210 219 221 205 230 223 225 221 235 241 244 245
347 344 359 352 0 4 11 16 10 33 47 53 57 131 137 142 143 163 162 195 174 187 195 191 197 197 199 208 208 185 202 212 208 216 214 225 224 228 232 220 218 228 239 244 248
336 353 352 355 1 6 13 22 30 34 39 49 62 112 146 152 157 164 167 171 183 184 197 198 196 196 198 200 204 210 213 221 205 210 216 221 236 215 235 231 217 216 232 234 248
11 353 12 357 4 12 14 23 41 35 43 44 60 123 151 158 158 162 163 180 183 192 197 199 199 196 197 199 204 210 212 216 218 226 228 225 230 237 227 240 243 239 246 248 249
14 355 0 10 12 14 18 21 44 44 45 43 73 103 126 150 163 166 173 170 176 192 178 189 190 192 197 198 201 206 211 217 219 214 214 239 226 233 237 234 242 216 248 250 248
16 5 9 4 8 13 19 24 26 38 49 66 82 65 118 144 168 163 172 173 182 174 184 183 191 194 196 197 198 205 210 212 218 217 220 217 247 258 271 246 251 249 257 257 254
348 355 3 16 19 23 20 25 28 31 44 48 69 60 102 108 110 151 169 177 178 173 182 178 192 193 195 197 197 205 210 212 216 216 216 215 223 229 234 237 251 243 251 253 257
2 348 12 15 21 20 17 25 31 30 42 42 55 60 117 116 100 99 154 132 149 159 189 173 195 198 198 197 198 207 209 213 218 221 223 223 224 229 232 234 241 247 251 258 266
360 3 2 4 13 22 21 23 29 33 33 58 59 67 70 119 105 107 286 113 166 160 172 191 192 196 196 206 200 206 209 215 220 224 228 230 232 233 232 237 241 242 254 254 261
339 6 19 16 5 17 25 28 31 31 33 39 58 64 73 93 123 91 95 109 139 137 171 184 187 188 196 200 210 202 206 214 219 219 223 232 234 225 234 240 244 251 255 260 264
7 349 354 2 357 15 22 31 27 31 32 38 40 42 65 70 273 99 106 99 151 127 135 161 167 183 200 208 203 206 207 210 217 219 220 227 232 240 238 239 243 249 252 254 256
356 4 8 353 8 15 3 24 34 30 36 36 57 44 134 258 178 296 117 97 114 138 147 158 173 182 189 203 203 206 210 212 214 221 221 229 237 237 237 242 239 239 242 249 247
357 354 359 355 1 11 2 12 30 31 38 36 38 42 47 52 45 61 125 184 97 124 208 195 177 182 189 197 211 208 212 216 217 220 224 235 238 246 233 238 252 260 260 261 262
351 351 351 352 1 345 352 360 25 16 35 48 45 48 197 206 57 52 217 240 99 225 225 163 197 222 209 198 224 213 213 216 219 222 229 236 249 249 254 261 262 258 250 249 255
343 344 339 354 350 6 345 354 18 32 40 43 44 53 53 49 203 192 52 198 205 161 247 180 202 196 229 215 200 236 237 220 224 226 234 244 251 247 245 247 247 246 252 258 257
339 342 342 334 345 356 325 360 347 23 40 346 44 45 48 62 60 52 54 52 239 234 235 208 207 241 207 199 199 213 214 221 224 208 232 246 237 248 248 250 250 256 252 264 270
304 334 341 342 345 332 348 5 337 337 28 34 32 33 61 54 67 70 61 54 57 245 58 209 250 200 240 180 241 253 241 242 206 231 234 233 235 240 261 260 260 256 255 263 263
327 313 337 339 339 341 348 303 312 1 319 358 25 26 18 58 63 56 52 220 76 59 66 76 72 249 249 250 246 225 222 249 251 247 251 256 250 261 258 259 251 258 269 265 271
312 304 325 318 333 335 338 331 330 301 317 20 1 25 36 22 9 36 307 200 150 117 220 243 218 240 240 241 238 237 224 237 245 250 257 253 248 254 262 266 268 266 267 263 264
315 316 311 322 310 333 334 339 301 293 311 305 352 303 317 11 320 6 24 46 268 249 234 226 17 209 10 241 229 234 234 233 229 230 235 255 249 251 248 248 254 259 261 264 264
308 304 317 294 308 324 332 326 265 315 347 357 342 342 353 358 294 179 280 356 309 270 255 265 263 252 246 240 238 236 239 248 250 250 252 257 261 259 255 256 258 259 260 263 265
303 304 306 299 313 305 308 325 317 330 334 338 290 295 303 289 298 319 293 283 326 255 243 266 260 250 253 258 257 255 259 264 255 253 254 256 258 261 257 258 258 260 264 268 270